Tracking 28790 objects as of 19-Apr-2024
HD Live streaming from Space Station
objects crossing your sky now

STARLINK-5273

Track STARLINK-5273 now!
10-day predictions
STARLINK-5273 is classified as:


NORAD ID: 54162
Int'l Code: 2022-141F
Perigee: 546.0 km
Apogee: 547.8 km
Inclination: 53.2 °
Period: 95.4 minutes
Semi major axis: 6917 km
RCS: Unknown
Launch date: October 28, 2022
Source: United States (US)
Launch site: AIR FORCE WESTERN TEST RANGE (AFWTR)
Your satellite tracking list
Your tracking list is empty




NASA's NSSDC Master Catalog

Two Line Element Set (TLE):
1 54162U 22141F   24109.51201157 -.00001601  00000-0 -82557-4 0  9997
2 54162  53.2159 232.4605 0001251  87.1189 272.9946 15.08829982 81527
Source of the keplerian elements: AFSPC